Regional Weather Roundup
Issued by NWS

Home | Current Version | Previous Version | Text Only | Print | Product List | Glossary Off
Versions: 1 2 3 4 5 6 7 8 9 10 11 12 13 14 15 16 17 18 19 20 21 22 23 24 25 26 27 28 29 30 31 32 33 34 35 36 37 38 39 40 41 42 43 44 45 46 47 48 49

000
ASUS45 KTFX 082110
RWRMT
MONTANA REGIONAL WEATHER ROUNDUP
NATIONAL WEATHER SERVICE GREAT FALLS MT
200 PM MST MON FEB 08 2016

NOTE: "FAIR" INDICATES FEW OR NO CLOUDS BELOW 12000 FEET WITH NO
SIGNIFICANT WEATHER AND/OR OBSTRUCTIONS TO VISIBILITY.

MTZ001>007-043-082200-
WEST OF THE DIVIDE

CITY           SKY/WX    TMP DP  RH WIND       PRES   REMARKS
KALISPELL      PTSUNNY   39  27  62 CALM      30.57F
MISSOULA       CLOUDY    36  28  73 SW5       30.59F
BUTTE          CLOUDY    39  28  64 S6        30.52F
MULLAN PASS    SUNNY     40  29  64 SW3       30.55S
ANACONDA         N/A     45  27  49 N3        30.52F
DEER LODGE       N/A     43  27  52 CALM      30.53F
HAMILTON         N/A     45  27  49 NW6       30.55F
LIBBY            N/A     45  21  39 CALM      30.58F
PLAINS           N/A     46  27  48 CALM      30.53F
$$

MTZ008-052>055-082200-
SOUTHWEST MONTANA

CITY           SKY/WX    TMP DP  RH WIND       PRES   REMARKS
BOZEMAN        CLOUDY    36  30  79 S3        30.50F
DILLON         CLOUDY    41  29  62 NE3       30.53F
ENNIS          SUNNY     48  28  46 S12       30.56F
TWIN BRIDGES     N/A     37  25  62 E3        30.45F
$$

MTZ009-010-012-014-046-048-049-054-082200-
EAST SLOPES AND CENTRAL MONTANA

CITY           SKY/WX    TMP DP  RH WIND       PRES   REMARKS
CUT BANK       SUNNY     58  27  30 W24G33    30.32F
GREAT FALLS    CLOUDY    61  28  28 W22G31    30.34F
MALMSTROM AFB  CLOUDY    60  28  29 W17G25    30.34F
HELENA         CLOUDY    50  33  52 W21G29    30.44F
CHOTEAU          N/A     59  28  31 W18       30.36F
CONRAD           N/A     59  30  33 SW23      30.32F
$$

MTZ011-013-016-021-045-047-050-051-082200-
NORTH CENTRAL MONTANA

CITY           SKY/WX    TMP DP  RH WIND       PRES   REMARKS
HAVRE          SUNNY     54  30  40 W14       30.30F
LEWISTOWN      SUNNY     49  30  48 W12       30.34F
N BAR RANCH      N/A     52  27  37 NW24G30   30.34F
CHINOOK          N/A     54  27  35 W14       30.28F
$$

MTZ017>020-022>027-061-062-082200-
NORTHEAST MONTANA

CITY           SKY/WX    TMP DP  RH WIND       PRES   REMARKS
GLASGOW        CLOUDY    37  20  50 SW5       30.30F
JORDAN           N/A     45  27  49 W7        30.29F
SIDNEY         CLOUDY    37  12  35 NW14      30.33R WCI  29
WOLF POINT     CLOUDY    38  19  46 W6        30.33F
PLENTYWOOD       N/A     34  18  51 W12       30.29F WCI  25
POPLAR           N/A     36  19  51 W7        30.33F WCI  30
SCOBEY           N/A     35  13  40 W1        30.25F
$$

MTZ028>42-056>058-082200-
SOUTHCENTRAL AND SOUTHEAST MONTANA

CITY           SKY/WX    TMP DP  RH WIND       PRES   REMARKS
BAKER          CLOUDY    38   8  29 NW15      30.29F WCI  29
BILLINGS       MOSUNNY   59  24  26 NW25G32   30.34F
LIVINGSTON     CLOUDY    55  28  35 W25G33    30.44F
MILES CITY     SUNNY     47  18  31 NW13      30.30F
FORSYTH          N/A     50  23  34 W13       30.29F
LAUREL           N/A     57  24  28 W12       30.30F
ROUNDUP          N/A     58  22  25 W10       30.20F
$$

REGIONAL REPORTS...DAKOTAS

CITY           SKY/WX    TMP DP  RH WIND       PRES   REMARKS
WILLISTON      CLOUDY    36  18  48 N13       30.30F WCI  27
MINOT          CLOUDY    33  10  38 NW24G32   30.24F WCI  20
DICKINSON      CLOUDY    34  10  37 NW23G29   30.24F WCI  22
BEACH          CLOUDY    36  10  35 NW15      30.31S WCI  26
CROSBY         PTSUNNY   30  19  64 NW9G16    30.31F WCI  22
TIOGA          PTSUNNY   28  23  80 NW16      30.32F WCI  17
WATFORD CITY     N/A     32  16  51 NW14G20   30.29F WCI  22
BISMARCK       PTSUNNY   37  17  44 NW23G31   30.24S WCI  26
GRAND FORKS    LGT SNOW  14   6  70 N28G36    30.22R VSB 1   WCI  -6
FARGO          SNOW      15   8  73 N26G38    30.19R VSB 1/2 WCI  -4
BUFFALO SD       N/A     38   8  29 NW23G30   30.20F WCI  27
RAPID CITY     CLOUDY    42   9  25 N26G33    30.25F
$$

REGIONAL REPORTS...WYOMING/IDAHO/WASHINGTON

CITY           SKY/WX    TMP DP  RH WIND       PRES   REMARKS
GILLETTE       CLOUDY    42  26  53 NW21      30.30F
SHERIDAN       SUNNY     52  29  41 NW20G28   30.33F
BUFFALO WY     SUNNY     47  29  49 N17G24    30.33S
CODY           SUNNY     50  21  32 NE10      30.38F
YELLOWSTONE LA   N/A     27  18  69 VRB6      30.56F WCI  20
IDAHO FALLS    CLOUDY    27  24  89 N3        30.68F
SALMON         CLOUDY    30  19  64 CALM      30.67F
BOISE          SUNNY     43  34  70 S14       30.67F
SPOKANE        PTSUNNY   44  31  60 NE8       30.57F
$$

REGIONAL REPORTS...ALBERTA

CITY           SKY/WX    TMP DP  RH WIND       PRES   REMARKS
EDMONTON       SUNNY     39  27  60 W8        30.24S
CALGARY        PTSUNNY   57  21  24 W16G24    30.24F
LETHBRIDGE     PTSUNNY   55  28  35 W30G40    30.27F
$$

REGIONAL REPORTS...SASKATCHEWAN

CITY           SKY/WX    TMP DP  RH WIND       PRES   REMARKS
SWIFT CURRENT  CLOUDY    39   9  28 SW5       30.24S
REGINA         CLOUDY    28  19  69 NW5       30.28F
SASKATOON      CLOUDY    30  21  69 S6        30.27F WCI  24
$$



USA.gov is the U.S. government's official web portal to all federal, state and local government web resources and services.